[[{"header":{"parameterUnit":"m.s-1","parameterCategory":1,"la1":30.2991,"la2":30.254,"lo1":-89.0895,"lo2":-89.0444,"dy":0.0017,"dx":0.0017,"nx":28,"ny":28,"refTime":"2023-08-01T21:00:00:Z","depth":0,"parameterNumber":2,"parameterNumberName":"U-component_of_WINDS"},"data":[0,0,0,0,0,0,0,0,0,0,0,0,0,0,0,0,0,0,0,0,0,0,0,0,0,0,0,0,0,0,0,0,0,0,0,0,0,0,0,0,0,0,0,0,0,0,0,0,0,0,0,0,0,0,0,0,0,0,0.2391,0.2392,0,0.2488,0.249,0.2491,0.2491,0.249,0.2489,0.2488,0.2592,0.2595,0.2599,0,0,0,0,0,0,0,0,0,0,0,0,0,0.2208,0.2211,0.2391,0.2392,0.2393,0.2488,0.249,0.2491,0.2492,0.249,0.2489,0.2487,0.259,0.2595,0.26,0,0,0,0,0,0,0,0,0,0,0,0,0,0.2295,0.2212,0.239,0.2405,0.2407,0.2488,0.249,0.2491,0.2492,0.249,0.2488,0.2486,0.2589,0.2595,0.26,0.2675,0,0,0.2618,0.2621,0,0,0,0,0,0,0,0,0.229,0.2301,0.2401,0.2404,0.2407,0.2476,0.2463,0.2553,0.2492,0.246,0.2488,0.2485,0.2555,0.2563,0.2586,0.268,0.2684,0.2619,0.2623,0.2625,0.2627,0,0,0,0,0,0,0,0.2284,0.2297,0.2429,0.2403,0.2406,0.2407,0.2418,0.248,0.2517,0.2463,0.2463,0.2474,0.2556,0.258,0.2589,0.2686,0.2619,0.2624,0.2628,0.263,0.2846,0.2848,0,0,0,0,0,0,0.2274,0.2292,0.2426,0.2432,0.2342,0.2412,0.2424,0.2456,0.2516,0.2524,0.2476,0.2474,0.2571,0.2582,0.2592,0.2684,0.2625,0.2631,0.2634,0.2844,0.2846,0.2849,0,0,0,0,0,0,0.227,0.2286,0.2422,0.2362,0.238,0.2417,0.2453,0.2458,0.2483,0.2526,0.2533,0.2494,0.257,0.2584,0.2654,0.2688,0.2633,0.2639,0.2841,0.2844,0.2847,0.2868,0,0,0,0,0,0,0.2265,0.2285,0.2313,0.2363,0.2383,0.2482,0.2455,0.2462,0.2493,0.2491,0.2545,0.2552,0.257,0.2645,0.266,0.2695,0.2643,0.2838,0.2843,0.2846,0.2864,0.2871,0.2877,0,0,0,0,0,0.2259,0.2315,0.2314,0.233,0.2418,0.2484,0.2495,0.2513,0.2495,0.2524,0.2552,0.255,0.2681,0.2652,0.2669,0.2706,0.2836,0.2841,0.2846,0.2861,0.287,0.2877,0,0,0,0,0,0,0.227,0.2322,0.2322,0.2396,0.2435,0.2484,0.2521,0.2522,0.2568,0.2565,0.2587,0.2599,0.2669,0.2694,0.2661,0.2781,0.2757,0.2765,0.2763,0.2771,0.2777,0.2771,0.2648,0,0,0,0,0,0.228,0.2328,0.2372,0.2433,0.2453,0.2483,0.2512,0.2523,0.2565,0.2582,0.2615,0.2657,0.2707,0.274,0.2789,0.2867,0.288,0.2901,0.2907,0.2912,0.292,0.2964,0.2974,0.2865,0.2865,0.2865,0,0,0.2304,0.2338,0.2367,0.2436,0.2468,0.2518,0.2497,0.2551,0.2588,0.259,0.2659,0.2684,0.2732,0.2807,0.2842,0.283,0.2953,0.2919,0.2922,0.2928,0.297,0.2981,0.299,0.2868,0.2867,0.2867,0,0,0.2372,0.2402,0.2457,0.2489,0.2537,0.2556,0.2569,0.2618,0.2635,0.2703,0.2705,0.2751,0.2837,0.2872,0.2901,0.2981,0.2982,0.2996,0.3031,0.3074,0.3082,0.309,0.312,0.313,0.3003,0.3003,0.3003,0,0.2396,0.247,0.2486,0.2539,0.257,0.2572,0.2629,0.2659,0.2721,0.2742,0.2728,0.2837,0.287,0.2953,0.2972,0.2995,0.3012,0.2991,0.3079,0.3087,0.3095,0.3124,0.3135,0.3005,0.3005,0.3005,0.3004,0,0.2497,0.2548,0.2587,0.2645,0.268,0.2735,0.276,0.2793,0.28,0.2822,0.2892,0.2931,0.2988,0.3008,0.3016,0.3093,0.3084,0.3074,0.305,0.3107,0.3134,0.3145,0.3007,0.3007,0.3006,0.3006,0,0,0.2577,0.2642,0.2656,0.2683,0.2735,0.2775,0.283,0.2885,0.2914,0.2956,0.3004,0.3076,0.3067,0.31,0.3112,0.3149,0.3211,0.3135,0.3136,0.3149,0.3299,0.3307,0.3319,0.3211,0.3213,0.3215,0.3295,0,0.2652,0.2748,0.2764,0.2849,0.2898,0.29,0.2948,0.2986,0.3007,0.3052,0.3076,0.3128,0.3111,0.3131,0.3168,0.3196,0.3242,0.319,0.3257,0.3259,0.3246,0.3333,0.3342,0.3417,0.3306,0.3308,0.3309,0,0.2752,0.2796,0.2886,0.2932,0.2952,0.2995,0.3046,0.3089,0.3132,0.3145,0.3181,0.3188,0.3246,0.3218,0.3299,0.3263,0.3291,0.3309,0.3312,0.3321,0.3289,0.3346,0.3441,0.3452,0.3326,0.3325,0.3323,0,0.2803,0.2884,0.2949,0.2971,0.3026,0.3056,0.308,0.3121,0.3153,0.3198,0.3219,0.327,0.3299,0.3339,0.336,0.3337,0.344,0.3413,0.3454,0.3454,0.3477,0.3476,0.3579,0.3493,0.3492,0.3492,0.3492,0,0.2886,0.2942,0.2972,0.3012,0.3074,0.3092,0.3153,0.3177,0.3213,0.3259,0.3264,0.3306,0.3331,0.3377,0.3394,0.3459,0.3472,0.3485,0.3489,0.3485,0.3484,0.3506,0.3502,0.3495,0.3494,0.3494,0.3493,0,0.2954,0.2977,0.3047,0.3092,0.3105,0.3149,0.3189,0.3228,0.3248,0.3306,0.332,0.3353,0.3408,0.3432,0.35,0.3511,0.3586,0.3586,0.3572,0.3573,0.3613,0.3609,0.3735,0.3753,0.3653,0.3654,0.3655,0,0.3007,0.3049,0.3098,0.3128,0.3153,0.3202,0.3234,0.3252,0.3286,0.3338,0.3371,0.3426,0.3471,0.3558,0.3589,0.3641,0.3643,0.3683,0.3651,0.3646,0.3645,0.3643,0.3648,0.369,0.3691,0.3692,0.3692,0,0.3098,0.3106,0.3152,0.3201,0.3239,0.3279,0.3318,0.3343,0.3368,0.3405,0.346,0.3495,0.3564,0.3618,0.3672,0.3698,0.37,0.3702,0.3714,0.3712,0.3702,0.3709,0.3589,0.37,0.3699,0.3698,0.3698,0.3698,0.3161,0.3198,0.3239,0.329,0.3321,0.3357,0.3396,0.3421,0.3467,0.3524,0.3532,0.3592,0.3634,0.3706,0.3734,0.3781,0.3772,0.3789,0.3794,0.3799,0.3802,0.3693,0.3791,0.3791,0.3791,0.3791,0.379,0,0.3253,0.3279,0.3325,0.3379,0.3419,0.3415,0.3458,0.3492,0.3544,0.3582,0.3626,0.369,0.3743,0.3777,0.383,0.3862,0.3864,0.3875,0.3874,0.388,0.3807,0.3791,0.3873,0.3873,0.3873,0.3873,0.3873,0.3873,0.3306,0.337,0.3384,0.3464,0.3489,0.3547,0.3572,0.3606,0.3637,0.3707,0.3751,0.3772,0.3809,0.3865,0.3914,0.3922,0.3942,0.3955,0.3963,0.3894,0.3886,0.3877,0.3863,0.3958,0.3959,0.4033,0.4034,0.4034]},{"header":{"parameterUnit":"m.s-1","parameterCategory":1,"la1":30.2991,"la2":30.254,"lo1":-89.0895,"lo2":-89.0444,"dy":0.0017,"dx":0.0017,"nx":28,"ny":28,"refTime":"2023-08-01T21:00:00:Z","depth":0,"parameterNumber":3,"parameterNumberName":"V-component_of_WINDS"},"data":[0,0,0,0,0,0,0,0,0,0,0,0,0,0,0,0,0,0,0,0,0,0,0,0,0,0,0,0,0,0,0,0,0,0,0,0,0,0,0,0,0,0,0,0,0,0,0,0,0,0,0,0,0,0,0,0,0,0,1.4388,1.4388,0,1.4351,1.4351,1.435,1.4345,1.4345,1.4345,1.4346,1.4306,1.4304,1.4303,0,0,0,0,0,0,0,0,0,0,0,0,0,1.4449,1.4448,1.4388,1.4388,1.4387,1.4351,1.4351,1.435,1.4345,1.4345,1.4345,1.4346,1.4306,1.4304,1.4303,0,0,0,0,0,0,0,0,0,0,0,0,0,1.4419,1.4448,1.4388,1.438,1.4379,1.4351,1.4351,1.435,1.4345,1.4345,1.4346,1.4346,1.4307,1.4305,1.4302,1.428,0,0,1.4296,1.4295,0,0,0,0,0,0,0,0,1.442,1.4416,1.4382,1.4381,1.4379,1.4353,1.4358,1.4326,1.4344,1.4358,1.4346,1.4346,1.4321,1.4318,1.431,1.4278,1.4276,1.4296,1.4295,1.4294,1.4293,0,0,0,0,0,0,0,1.4423,1.4418,1.4374,1.4381,1.438,1.4377,1.4373,1.4352,1.4337,1.4357,1.4356,1.4352,1.432,1.4312,1.4309,1.4275,1.4296,1.4294,1.4293,1.4292,1.4219,1.4218,0,0,0,0,0,0,1.4427,1.442,1.4375,1.4372,1.4402,1.4375,1.4371,1.4361,1.4337,1.4334,1.4351,1.4352,1.4315,1.4311,1.4307,1.4276,1.4294,1.4292,1.4291,1.4219,1.4219,1.4218,0,0,0,0,0,0,1.4428,1.4423,1.4376,1.4396,1.439,1.4374,1.4363,1.436,1.4351,1.4333,1.433,1.4346,1.4315,1.431,1.4286,1.4275,1.4291,1.4289,1.422,1.4219,1.4218,1.4216,0,0,0,0,0,0,1.443,1.4423,1.4416,1.4396,1.4389,1.4357,1.4362,1.4359,1.4348,1.4348,1.4327,1.4324,1.4315,1.4289,1.4284,1.4272,1.4287,1.4221,1.422,1.4219,1.4217,1.4215,1.4213,0,0,0,0,0,1.4432,1.4417,1.4415,1.441,1.4379,1.4357,1.4352,1.4343,1.4347,1.4339,1.4326,1.4325,1.4277,1.4286,1.4281,1.4268,1.4222,1.422,1.4219,1.4217,1.4215,1.4213,0,0,0,0,0,0,1.4436,1.4414,1.4412,1.4391,1.4375,1.4356,1.4345,1.4342,1.4324,1.4325,1.4314,1.4309,1.4284,1.4274,1.4285,1.4243,1.4249,1.4247,1.4251,1.4248,1.4246,1.4249,1.4286,0,0,0,0,0,1.4434,1.4419,1.44,1.4383,1.4375,1.4361,1.4351,1.4345,1.4328,1.4322,1.4308,1.4291,1.4272,1.426,1.4241,1.4215,1.4209,1.4203,1.4202,1.42,1.4197,1.4179,1.4176,1.4213,1.4213,1.4213,0,0,1.4431,1.4417,1.4408,1.4383,1.4371,1.4353,1.4356,1.4338,1.4324,1.4319,1.4295,1.4283,1.4264,1.4237,1.4225,1.4228,1.4186,1.4198,1.4197,1.4195,1.4177,1.4174,1.417,1.4212,1.4212,1.4212,0,0,1.4415,1.4404,1.4387,1.4374,1.4355,1.4345,1.434,1.432,1.4313,1.4288,1.4283,1.4265,1.4234,1.4219,1.4207,1.4181,1.4178,1.4176,1.4166,1.4148,1.4145,1.4142,1.413,1.4127,1.4173,1.4173,1.4173,0,1.4413,1.4388,1.4378,1.436,1.4347,1.4342,1.4322,1.431,1.4286,1.4276,1.428,1.4237,1.4224,1.4192,1.4186,1.4177,1.417,1.4178,1.4147,1.4144,1.4141,1.4129,1.4125,1.4173,1.4173,1.4173,1.4173,0,1.4384,1.4366,1.4354,1.433,1.4317,1.4298,1.4284,1.4271,1.4266,1.4255,1.4228,1.4211,1.4187,1.4179,1.4174,1.4146,1.4148,1.4149,1.4155,1.4137,1.4126,1.4122,1.4173,1.4173,1.4173,1.4173,0,0,1.4372,1.4341,1.4337,1.4324,1.4301,1.4286,1.4265,1.4242,1.423,1.4213,1.4193,1.4165,1.4165,1.4151,1.4144,1.4128,1.4105,1.4131,1.413,1.4125,1.4069,1.4067,1.4062,1.4103,1.4102,1.4102,1.407,0,1.4352,1.4317,1.4306,1.4275,1.4256,1.4249,1.423,1.4213,1.4201,1.4182,1.4169,1.4148,1.4151,1.4142,1.4127,1.4112,1.4094,1.4114,1.4082,1.4081,1.4086,1.4057,1.4056,1.4027,1.4066,1.4065,1.4064,0,1.4325,1.4306,1.4273,1.4249,1.4241,1.4225,1.4201,1.4184,1.4162,1.4154,1.4137,1.413,1.4106,1.4113,1.4078,1.4091,1.4077,1.4068,1.4066,1.4062,1.4071,1.405,1.4018,1.4012,1.4058,1.4059,1.4059,0,1.4316,1.4283,1.4258,1.4248,1.422,1.4208,1.4195,1.4174,1.416,1.4138,1.4128,1.4104,1.409,1.4071,1.4056,1.4064,1.402,1.4028,1.4011,1.4011,1.4001,1.4002,1.3964,1.3995,1.3996,1.3996,1.3996,0,1.4295,1.4275,1.4253,1.4238,1.4213,1.42,1.4176,1.4163,1.4143,1.4123,1.4115,1.4096,1.4079,1.4057,1.4045,1.4015,1.4009,1.4,1.3997,1.4,1.4001,1.399,1.3991,1.3994,1.3995,1.3995,1.3995,0,1.4282,1.4267,1.4239,1.4213,1.4206,1.4189,1.4166,1.415,1.4137,1.4111,1.4104,1.4083,1.4056,1.404,1.4006,1.3997,1.3963,1.3962,1.3971,1.3969,1.3952,1.3953,1.3905,1.3896,1.3935,1.3935,1.3934,0,1.4269,1.4252,1.4224,1.421,1.4198,1.4176,1.416,1.4145,1.4129,1.4101,1.4087,1.4059,1.4037,1.3993,1.3974,1.3946,1.3943,1.3928,1.3939,1.3941,1.3939,1.394,1.3936,1.3926,1.3926,1.3925,1.3925,0,1.4246,1.4238,1.4217,1.4192,1.4174,1.4153,1.4133,1.4121,1.4102,1.4084,1.4056,1.4038,1.4002,1.3974,1.3944,1.3929,1.3922,1.3922,1.3916,1.3918,1.3922,1.3917,1.3964,1.3923,1.3923,1.3923,1.3923,1.3923,1.4231,1.4215,1.4191,1.4167,1.4149,1.4129,1.4111,1.4095,1.4072,1.4041,1.4033,1.4003,1.3978,1.3937,1.3921,1.3895,1.3897,1.389,1.3887,1.3885,1.3883,1.3928,1.389,1.389,1.389,1.389,1.389,0,1.4206,1.419,1.4167,1.4138,1.4117,1.4113,1.4089,1.4072,1.4045,1.4023,1.4,1.3965,1.3936,1.3913,1.3883,1.3866,1.3862,1.3859,1.3859,1.3855,1.3885,1.3891,1.3862,1.3862,1.3862,1.3862,1.3862,1.3862,1.419,1.4162,1.4151,1.4112,1.4095,1.4066,1.4052,1.4032,1.4013,1.3975,1.3951,1.3936,1.3912,1.3879,1.3851,1.3845,1.3833,1.3829,1.3822,1.385,1.3853,1.3856,1.3862,1.3827,1.3827,1.3794,1.3793,1.3793]}]]